timestamp,wind_dir_avg,wind_spd_avg,wind_spd_max_dir,wind_spd_gust,battery_voltage,lat,long
2024-03-04 00:04:00+00:00,206.0,7.32,207.0,8.14,12.17,47.59359,-54.27349
2024-03-04 00:14:00+00:00,210.0,6.63,209.0,7.38,12.17,47.59359,-54.27349
2024-03-04 00:24:00+00:00,211.0,6.7,210.0,7.87,12.17,47.59359,-54.27349
2024-03-04 00:34:00+00:00,226.0,6.92,225.0,8.2,12.17,47.59359,-54.27349
2024-03-04 00:44:00+00:00,227.0,7.9,221.0,9.28,12.17,47.59359,-54.27349
2024-03-04 00:54:00+00:00,228.0,8.09,227.0,9.19,12.17,47.59359,-54.27349
2024-03-04 01:04:00+00:00,225.0,7.38,225.0,8.77,12.17,47.59359,-54.27349
2024-03-04 01:14:00+00:00,225.0,7.86,223.0,9.19,12.17,47.59359,-54.27349
2024-03-04 01:24:00+00:00,223.0,8.45,219.0,9.69,12.17,47.59359,-54.27349
2024-03-04 01:34:00+00:00,223.0,7.13,220.0,8.73,12.17,47.59359,-54.27349
2024-03-04 01:44:00+00:00,222.0,8.08,220.0,9.21,12.17,47.59359,-54.27349
2024-03-04 01:54:00+00:00,217.0,6.75,239.0,7.99,12.17,47.59359,-54.27349
2024-03-04 02:04:00+00:00,228.0,7.05,228.0,8.2,12.17,47.59359,-54.27349
2024-03-04 02:14:00+00:00,223.0,6.32,220.0,7.7,12.09,47.59359,-54.27349
2024-03-04 02:24:00+00:00,218.0,6.4,221.0,7.33,12.09,47.59359,-54.27349
2024-03-04 02:34:00+00:00,219.0,6.47,219.0,7.65,12.09,47.59359,-54.27349
2024-03-04 02:44:00+00:00,224.0,7.12,219.0,8.38,12.09,47.59359,-54.27349
2024-03-04 02:54:00+00:00,218.0,6.15,224.0,7.02,12.09,47.59359,-54.27349
2024-03-04 03:04:00+00:00,216.0,5.34,226.0,6.12,12.09,47.59359,-54.27349
2024-03-04 03:14:00+00:00,212.0,5.21,216.0,6.17,12.09,47.59359,-54.27349
2024-03-04 03:24:00+00:00,215.0,5.01,216.0,5.69,12.09,47.59359,-54.27349
2024-03-04 03:34:00+00:00,198.0,4.92,216.0,5.84,12.09,47.59359,-54.27349
2024-03-04 03:44:00+00:00,176.0,3.45,212.0,4.13,12.09,47.59359,-54.27349
2024-03-04 03:54:00+00:00,201.0,2.48,228.0,3.52,12.09,47.59359,-54.27349
2024-03-04 04:04:00+00:00,193.0,3.22,213.0,3.9,12.09,47.59359,-54.27349
2024-03-04 04:14:00+00:00,181.0,4.72,213.0,5.66,12.09,47.59359,-54.27349
2024-03-04 04:24:00+00:00,194.0,3.55,213.0,4.77,12.09,47.59359,-54.27349
2024-03-04 04:34:00+00:00,222.0,5.51,221.0,5.8,12.09,47.59359,-54.27349
2024-03-04 04:44:00+00:00,225.0,5.02,224.0,5.52,12.09,47.59359,-54.27349
2024-03-04 04:54:00+00:00,224.0,4.26,222.0,4.66,12.09,47.59359,-54.27349
2024-03-04 05:04:00+00:00,227.0,4.12,228.0,4.47,12.09,47.59359,-54.27349
2024-03-04 05:14:00+00:00,228.0,4.7,226.0,5.03,12.09,47.59359,-54.27349
2024-03-04 05:24:00+00:00,227.0,4.6,228.0,5.32,12.09,47.59359,-54.27349
2024-03-04 05:34:00+00:00,156.0,2.95,153.0,3.28,12.09,47.59359,-54.27349
2024-03-04 05:44:00+00:00,141.0,2.93,140.0,3.23,12.09,47.59359,-54.27349
2024-03-04 05:54:00+00:00,184.0,2.93,185.0,3.2,12.09,47.59359,-54.27349
2024-03-04 06:04:00+00:00,157.0,2.78,137.0,3.89,12.09,47.59359,-54.27349
2024-03-04 06:14:00+00:00,163.0,1.87,141.0,3.26,12.01,47.59359,-54.27349
2024-03-04 06:24:00+00:00,315.0,0.01,207.0,0.0,12.01,47.59359,-54.27349
2024-03-04 06:34:00+00:00,315.0,0.01,181.0,0.0,12.01,47.59359,-54.27349
2024-03-04 06:44:00+00:00,315.0,0.01,225.0,0.0,12.01,47.59359,-54.27349
2024-03-04 06:54:00+00:00,224.0,1.32,228.0,1.53,12.01,47.59359,-54.27349
2024-03-04 07:04:00+00:00,259.0,1.01,260.0,1.17,12.01,47.59359,-54.27349
2024-03-04 07:14:00+00:00,315.0,0.01,241.0,0.0,12.01,47.59359,-54.27349
2024-03-04 07:24:00+00:00,315.0,0.01,228.0,0.0,12.01,47.59359,-54.27349
2024-03-04 07:34:00+00:00,315.0,0.01,228.0,0.0,12.01,47.59359,-54.27349
2024-03-04 07:44:00+00:00,158.0,0.94,171.0,1.11,12.01,47.59359,-54.27349
2024-03-04 07:54:00+00:00,195.0,1.57,196.0,1.66,12.01,47.59359,-54.27349
2024-03-04 08:04:00+00:00,187.0,1.7,175.0,1.94,12.01,47.59359,-54.27349
2024-03-04 08:14:00+00:00,212.0,1.79,218.0,2.03,11.93,47.59359,-54.27349
2024-03-04 08:24:00+00:00,192.0,1.88,191.0,2.09,11.93,47.59359,-54.27349
2024-03-04 08:34:00+00:00,169.0,2.12,125.0,3.52,11.93,47.59359,-54.27349
2024-03-04 08:44:00+00:00,180.0,1.38,186.0,1.53,11.93,47.59359,-54.27349
2024-03-04 08:54:00+00:00,127.0,3.0,120.0,3.46,11.93,47.59359,-54.27349
2024-03-04 09:04:00+00:00,147.0,1.11,108.0,2.9,11.93,47.59359,-54.27349
2024-03-04 09:14:00+00:00,117.0,1.01,98.0,2.83,11.93,47.59359,-54.27349
2024-03-04 09:24:00+00:00,254.0,0.14,91.0,3.08,11.93,47.59359,-54.27349
2024-03-04 09:34:00+00:00,315.0,0.01,321.0,0.0,11.93,47.59359,-54.27349
2024-03-04 09:44:00+00:00,334.0,3.09,337.0,3.89,11.93,47.59359,-54.27349
2024-03-04 09:54:00+00:00,37.0,10.35,41.0,11.71,11.93,47.59359,-54.27349
2024-03-04 10:04:00+00:00,37.0,9.59,33.0,11.5,11.93,47.59359,-54.27349
2024-03-04 10:14:00+00:00,41.0,9.7,46.0,10.83,11.93,47.59359,-54.27349
2024-03-04 10:24:00+00:00,40.0,11.24,40.0,13.51,11.93,47.59359,-54.27349
2024-03-04 10:34:00+00:00,37.0,11.58,39.0,12.98,11.93,47.59359,-54.27349
2024-03-04 10:44:00+00:00,36.0,10.62,35.0,12.34,11.93,47.59359,-54.27349
2024-03-04 10:54:00+00:00,36.0,11.44,37.0,13.05,11.93,47.59359,-54.27349
2024-03-04 11:04:00+00:00,29.0,11.43,35.0,12.94,11.93,47.59359,-54.27349
2024-03-04 11:14:00+00:00,33.0,11.96,35.0,12.9,11.86,47.59359,-54.27349
2024-03-04 11:24:00+00:00,31.0,10.37,34.0,11.19,11.86,47.59359,-54.27349
2024-03-04 11:34:00+00:00,34.0,9.38,40.0,10.59,11.86,47.59359,-54.27349
2024-03-04 11:44:00+00:00,32.0,9.38,32.0,10.46,11.86,47.59359,-54.27349
2024-03-04 11:54:00+00:00,36.0,8.75,39.0,9.58,11.86,47.59359,-54.27349
2024-03-04 12:04:00+00:00,32.0,8.66,32.0,9.56,11.86,47.59359,-54.27349
2024-03-04 12:14:00+00:00,32.0,8.52,34.0,9.53,12.09,47.59359,-54.27349
2024-03-04 12:24:00+00:00,32.0,7.88,34.0,8.77,12.09,47.59359,-54.27349
2024-03-04 12:34:00+00:00,35.0,7.72,34.0,8.38,12.09,47.59359,-54.27349
2024-03-04 12:44:00+00:00,47.0,7.11,45.0,7.93,12.09,47.59359,-54.27349
2024-03-04 12:54:00+00:00,36.0,8.06,33.0,8.83,12.09,47.59359,-54.27349
2024-03-04 13:04:00+00:00,51.0,8.31,53.0,9.57,12.09,47.59359,-54.27349
2024-03-04 13:14:00+00:00,35.0,8.41,39.0,9.28,13.05,47.59359,-54.27349
2024-03-04 13:24:00+00:00,31.0,10.63,32.0,11.62,13.05,47.59359,-54.27349
2024-03-04 13:34:00+00:00,12.0,10.8,15.0,12.46,13.05,47.59359,-54.27349
2024-03-04 13:44:00+00:00,22.0,11.44,19.0,13.11,13.05,47.59359,-54.27349
2024-03-04 13:54:00+00:00,25.0,10.69,23.0,11.92,13.05,47.59359,-54.27349
2024-03-04 14:04:00+00:00,19.0,9.21,20.0,10.45,13.05,47.59359,-54.27349
2024-03-04 14:14:01+00:00,17.0,10.83,18.0,12.45,14.4,47.59359,-54.27349
2024-03-04 14:24:01+00:00,12.0,9.27,17.0,11.03,14.4,47.59359,-54.27349
2024-03-04 14:34:01+00:00,16.0,10.54,22.0,12.67,14.4,47.59359,-54.27349
2024-03-04 14:44:01+00:00,22.0,9.8,29.0,10.96,14.4,47.59359,-54.27349
2024-03-04 14:54:01+00:00,25.0,9.3,26.0,10.54,14.4,47.59359,-54.27349
2024-03-04 15:04:01+00:00,10.0,9.72,18.0,11.54,14.4,47.59359,-54.27349
2024-03-04 15:14:00+00:00,17.0,9.68,19.0,12.04,14.56,47.59359,-54.27349
2024-03-04 15:24:00+00:00,17.0,9.31,20.0,10.65,14.56,47.59359,-54.27349
2024-03-04 15:34:00+00:00,4.0,8.82,15.0,12.33,14.56,47.59359,-54.27349
2024-03-04 15:44:00+00:00,357.0,10.59,0.0,12.36,14.56,47.59359,-54.27349
2024-03-04 15:54:00+00:00,6.0,11.33,4.0,13.01,14.56,47.59359,-54.27349
2024-03-04 16:04:00+00:00,3.0,11.38,3.0,13.46,14.56,47.59359,-54.27349
2024-03-04 16:14:00+00:00,14.0,12.03,13.0,13.75,14.32,47.59359,-54.27349
2024-03-04 16:24:00+00:00,9.0,12.06,14.0,14.94,14.32,47.59359,-54.27349
2024-03-04 16:34:00+00:00,12.0,11.94,14.0,13.63,14.32,47.59359,-54.27349
2024-03-04 16:44:00+00:00,14.0,11.71,15.0,13.72,14.32,47.59359,-54.27349
2024-03-04 16:54:00+00:00,10.0,10.37,14.0,12.41,14.32,47.59359,-54.27349
2024-03-04 17:04:00+00:00,7.0,10.29,12.0,12.04,14.32,47.59359,-54.27349
2024-03-04 17:14:01+00:00,11.0,11.16,12.0,13.76,14.56,47.59359,-54.27349
2024-03-04 17:24:01+00:00,7.0,9.67,7.0,11.73,14.56,47.59359,-54.27349
2024-03-04 17:34:01+00:00,11.0,9.7,14.0,11.61,14.56,47.59359,-54.27349
2024-03-04 17:44:01+00:00,2.0,9.92,9.0,11.06,14.56,47.59359,-54.27349
2024-03-04 17:54:01+00:00,4.0,10.3,1.0,11.93,14.56,47.59359,-54.27349
2024-03-04 18:04:01+00:00,8.0,8.04,13.0,9.66,14.56,47.59359,-54.27349
2024-03-04 18:14:01+00:00,3.0,8.05,2.0,9.07,14.24,47.59359,-54.27349
2024-03-04 18:24:01+00:00,15.0,9.16,14.0,10.43,14.24,47.59359,-54.27349
2024-03-04 18:34:01+00:00,28.0,7.46,32.0,9.28,14.24,47.59359,-54.27349
2024-03-04 18:44:01+00:00,18.0,7.6,15.0,8.93,14.24,47.59359,-54.27349
2024-03-04 18:54:01+00:00,15.0,6.97,11.0,7.91,14.24,47.59359,-54.27349
2024-03-04 19:04:01+00:00,24.0,7.36,23.0,8.97,14.24,47.59359,-54.27349
2024-03-04 19:14:00+00:00,20.0,6.17,22.0,7.72,14.32,47.59359,-54.27349
2024-03-04 19:24:00+00:00,23.0,7.37,21.0,8.1,14.32,47.59359,-54.27349
2024-03-04 19:34:00+00:00,24.0,6.61,20.0,7.53,14.32,47.59359,-54.27349
2024-03-04 19:44:00+00:00,26.0,6.27,21.0,7.11,14.32,47.59359,-54.27349
2024-03-04 19:54:00+00:00,24.0,5.62,23.0,6.31,14.32,47.59359,-54.27349
2024-03-04 20:04:00+00:00,27.0,5.34,31.0,5.83,14.32,47.59359,-54.27349
2024-03-04 20:14:00+00:00,21.0,4.44,18.0,5.0,13.53,47.59359,-54.27349
2024-03-04 20:24:00+00:00,355.0,4.97,344.0,7.03,13.53,47.59359,-54.27349
2024-03-04 20:34:00+00:00,353.0,6.77,347.0,7.5,13.53,47.59359,-54.27349
2024-03-04 20:44:00+00:00,346.0,6.74,343.0,7.54,13.53,47.59359,-54.27349
2024-03-04 20:54:00+00:00,358.0,6.29,356.0,6.82,13.53,47.59359,-54.27349
2024-03-04 21:04:00+00:00,5.0,4.62,6.0,5.27,13.53,47.59359,-54.27349
2024-03-04 21:14:00+00:00,351.0,4.33,346.0,4.69,13.29,47.59359,-54.27349
2024-03-04 21:24:00+00:00,354.0,5.15,0.0,5.69,13.29,47.59359,-54.27349
2024-03-04 21:34:00+00:00,359.0,4.49,357.0,4.73,13.29,47.59359,-54.27349
2024-03-04 21:44:00+00:00,347.0,3.04,351.0,3.41,13.29,47.59359,-54.27349
2024-03-04 21:54:00+00:00,348.0,3.64,343.0,4.26,13.29,47.59359,-54.27349
2024-03-04 22:04:00+00:00,344.0,3.63,352.0,4.06,13.29,47.59359,-54.27349
2024-03-04 22:14:00+00:00,320.0,3.28,318.0,3.72,12.49,47.59359,-54.27349
2024-03-04 22:24:00+00:00,344.0,3.57,347.0,3.93,12.49,47.59359,-54.27349
2024-03-04 22:34:00+00:00,324.0,2.27,318.0,2.53,12.49,47.59359,-54.27349
2024-03-04 22:44:00+00:00,339.0,2.53,340.0,2.8,12.49,47.59359,-54.27349
2024-03-04 22:54:00+00:00,12.0,3.06,17.0,3.46,12.49,47.59359,-54.27349
2024-03-04 23:04:00+00:00,302.0,1.32,302.0,1.6,12.49,47.59359,-54.27349
2024-03-04 23:14:00+00:00,316.0,3.62,318.0,4.23,12.25,47.59359,-54.27349
2024-03-04 23:24:00+00:00,318.0,4.93,320.0,5.31,12.25,47.59359,-54.27349
2024-03-04 23:34:00+00:00,317.0,3.79,320.0,4.16,12.25,47.59359,-54.27349
2024-03-04 23:44:00+00:00,329.0,3.59,326.0,4.14,12.25,47.59359,-54.27349
2024-03-04 23:54:00+00:00,356.0,3.4,352.0,3.93,12.25,47.59359,-54.27349
